This demonstration page uses our WeatherBlox Daily Observations layout. Learn more.

Left ArrowRight Arrow

39.29038, -76.61219

Hourly Observations for March 5, 2015

Temp ( °F °C ) Dew Point ( °F °C ) Humidity (%) Winds ( mph kmh ) Pressure ( in mb ) Visibility ( mi km ) Precip ( " mm )
12:54 am 00:54 undefined 41 5 39 3.9 93 93 undefined N/A 29.95 1014 N/A 0.02 0.51
1:54 am 01:54 undefined 42 5.6 38 3.3 85 85 undefined N/A 29.98 1015 N/A 0.02 0.51
2:54 am 02:54 undefined 40 4.4 37 2.8 89 89 undefined N/A 29.98 1015 N/A 0.01 0.25
3:54 am 03:54 undefined 39 3.9 34 1.1 82 82 undefined N/A 29.98 1015 N/A 0.01 0.25
4:54 am 04:54 undefined 37 2.8 32 0 82 82 undefined N/A 30.01 1016 N/A 0.01 0.25
5:54 am 05:54 undefined 36 2.2 32 0 86 86 undefined N/A 30.04 1017 N/A 0.00 0.00
6:54 am 06:54 undefined 35 1.7 29 -1.7 78 78 undefined N/A 30.05 1018 N/A 0.01 0.25
7:54 am 07:54 undefined 33 0.6 29 -1.7 85 85 undefined N/A 30.10 1019 N/A 0.04 1.02
8:54 am 08:54 undefined 32 0 30 -1.1 92 92 undefined N/A 30.12 1020 N/A 0.03 0.76
9:54 am 09:54 undefined 33 0.6 30 -1.1 89 89 undefined N/A 30.11 1020 N/A 0.05 1.27
10:54 am 10:54 undefined 32 0 29 -1.7 88 88 undefined N/A 30.14 1021 N/A 0.07 1.78
11:54 am 11:54 undefined 31 -0.6 27 -2.8 85 85 undefined N/A 30.16 1022 N/A 0.07 1.78
12:54 pm 12:54 undefined 30 -1.1 26 -3.3 85 85 undefined N/A 30.16 1021 N/A 0.04 1.02
1:54 pm 13:54 undefined 28 -2.2 25 -3.9 88 88 undefined N/A 30.17 1022 N/A 0.03 0.76
2:54 pm 14:54 undefined 26 -3.3 24 -4.4 92 92 undefined N/A 30.25 1024 N/A 0.07 1.78
3:54 pm 15:54 undefined 26 -3.3 23 -5 88 88 undefined N/A 30.24 1024 N/A 0.05 1.27
4:54 pm 16:54 undefined 24 -4.4 19 -7.2 81 81 undefined N/A 30.26 1025 N/A 0.02 0.51
5:54 pm 17:54 undefined 24 -4.4 16 -8.9 71 71 undefined N/A 30.29 1026 N/A 0.00 0.00
6:54 pm 18:54 undefined 24 -4.4 14 -10 65 65 undefined N/A 30.24 1024 N/A 0.00 0.00
7:54 pm 19:54 undefined 24 -4.4 14 -10 65 65 undefined N/A 30.35 1028 N/A 0.00 0.00
8:36 pm 20:36 undefined 23 -5 15 -9.4 72 72 undefined N/A 30.45 1031 N/A 0.00 0.00
8:54 pm 20:54 undefined 23 -5 15 -9.4 72 72 undefined N/A 30.42 1030 N/A 0.00 0.00
9:54 pm 21:54 undefined 24 -4.4 15 -9.4 68 68 undefined N/A 30.35 1028 N/A 0.00 0.00
10:54 pm 22:54 undefined 24 -4.4 10 -12.2 55 55 undefined N/A 30.46 1032 N/A 0.00 0.00
11:54 pm 23:54 undefined 22 -5.6 7 -13.9 52 52 undefined N/A 30.48 1032 N/A 0.00 0.00

Powered by AerisWeather